Starlink 2753

operational
NORAD ID: 48696 Int'l Des: 2021-044 Owner: SPXS Country: US Constellation: starlink
LEOCIRCULARSTARLINK_TYPE

About Starlink 2753

Description loading...

Live Position

Loading 3D Globe...

Upcoming Passes

Altitude History

Altitude vs Time

uPlot chart will show altitude changes over time

Two-Line Element Set

1 48696U 21044BL 26015.16991517 .00001200 00000-0 99428-4 0 9996
2 48696 53.0562 331.9254 0001381 82.0205 278.0941 15.06394674256068
Epoch: Jan 15, 2026 • Age: 30 hours

Current Status

Altitude 565.7 km
Velocity 7.58 km/s
Sub-Earth Point -50.88°S, 6.37°W
Launch Date May 26, 2021
Age 4.6 years
Type internet

Technical Details

Classification Payload
Mass 260.00 kg
Dry Mass 248.00 kg
Total Mass 260.00 kg
Length 0.20 m
Diameter 2.80 m
Span 9.00 m
Shape Box + pan
Manufacturer SPXS
Bus Type Starlink
Phase Status In Orbit
Owner/State SPXS/US

Large Constellations

Loading constellations...